This is the latest recevied weather packets stored in our database for station/object WD0REW. If no packets are shown the sender has not sent any weather packets the latest 10 day(s).
| Time | Temp. | Humidity | Pressure | Rain* | Wind** | Luminosity | Snow |
|---|---|---|---|---|---|---|---|
| 1777993653 | 14.44° C | 75% | 1008 hPa | 0 mm | - | 265 W/m² | - |
| 1777993350 | 14.44° C | 76% | 1008.2 hPa | 0 mm | - | 194 W/m² | - |
| 1777993050 | 14.44° C | 76% | 1008.1 hPa | 0 mm | - | 154 W/m² | - |
| 1777992748 | 15° C | 74% | 1008.4 hPa | 0 mm | - | 134 W/m² | - |
| 1777992446 | 14.44° C | 76% | 1008.3 hPa | 0 mm | - | 177 W/m² | - |
| 1777992144 | 14.44° C | 75% | 1008.2 hPa | 0 mm | - | 220 W/m² | - |
| 1777991841 | 14.44° C | 77% | 1008.4 hPa | 0 mm | - | 212 W/m² | - |
| 1777991538 | 13.89° C | 78% | 1008.4 hPa | 0 mm | - | 202 W/m² | - |
| 1777991235 | 13.89° C | 78% | 1008.6 hPa | 0 mm | - | 125 W/m² | - |
| 1777990932 | 13.89° C | 78% | 1008.7 hPa | 0 mm | - | 95 W/m² | - |
| 1777990630 | 13.89° C | 78% | 1008.7 hPa | 0 mm | - | 82 W/m² | - |
| 1777990327 | 14.44° C | 77% | 1008.5 hPa | 0 mm | - | 93 W/m² | - |
| 1777990023 | 14.44° C | 78% | 1008.5 hPa | 0 mm | - | 101 W/m² | - |
| 1777989720 | 13.89° C | 78% | 1008.2 hPa | 0 mm | - | 152 W/m² | - |
| 1777989416 | 13.89° C | 78% | 1008.2 hPa | 0 mm | - | 147 W/m² | - |
| 1777989112 | 13.89° C | 78% | 1008.4 hPa | 0 mm | - | 154 W/m² | - |
| 1777988808 | 13.89° C | 79% | 1008.4 hPa | 0 mm | - | 138 W/m² | - |
| 1777988506 | 13.89° C | 79% | 1008.2 hPa | 0 mm | - | 150 W/m² | - |
| 1777988203 | 13.89° C | 78% | 1008.5 hPa | 0 mm | - | 122 W/m² | - |
| 1777987899 | 14.44° C | 77% | 1008.4 hPa | 0 mm | - | 99 W/m² | - |
| 1777987595 | 14.44° C | 78% | 1008.3 hPa | 0 mm | - | 159 W/m² | - |
| 1777987293 | 14.44° C | 78% | 1008.3 hPa | 0 mm | - | 120 W/m² | - |
| 1777986989 | 13.89° C | 77% | 1008.3 hPa | 0 mm | - | 183 W/m² | - |
| 1777986687 | 13.89° C | 77% | 1008.1 hPa | 0 mm | - | 124 W/m² | - |
| 1777986385 | 13.89° C | 78% | 1007.8 hPa | 0 mm | - | 116 W/m² | - |
* Rain latest hour (hover to see other rain measurements)
** Current wind speed in m/s (hover to see current wind gust speed)